IRIDIUM 95 [+]

Last updated on Thu Mar 07 2019 03:10:07 GMT+0000 (Coordinated Universal Time)

1 27375U 02005D 19065.41404585 .00000084 00000-0 22874-4 0 9992 2 27375 86.3985 25.0133 0001910 105.7391 254.4015 14.34215561900817
UTC large
Height (km)
Speed (km/s)
/
Latitude / Longitude
Inclination (degrees)
Orbital Period (minutes)
Azimuth
Elevation
Range (km)
Doppler Factor

Next 0 passes for location: London (51.5072 / 0.1276)

Sorry there are no passes over London.